Flag Weather past 2 weeks in Sandefjord, Norway

Now
34 °F

Partly sunny.


Feels Like: 30 °F
Forecast: 35 / 38 °F
Wind: 5 mph from Northeast

Location: Torp

Current Time: Nov 29, 2014 at 11:23:43 AM

Latest Report: Nov 29, 2014 at 10:50 AM


Visibility: N/A

Pressure: 30.42 "Hg

Humidity: 87%

Dew point: 30 °F

Location of SandefjordLocation

Historic Weather in Sandefjord — Graph

°F

Sandefjord temperature yesterday

Maximum temperature yesterday: 36 °F (at 5:20 PM)
Minimum temperature yesterday: 32 °F (at 12:20 AM)
Average temperature yesterday: 34 °F

Past Weeks' High & Low Weather Summary

 TemperatureHumidityPressure
High48 °F (Nov 25, 1:50 PM)100% (Nov 14, 9:20 AM)30.48 "Hg (Nov 14, 9:20 AM)
Low28 °F (Nov 22, 6:20 AM)58% (Nov 25, 1:50 PM)29.65 "Hg (Nov 24, 7:20 AM)
Average38 °F92%30.22 "Hg
* Reported Nov 14 9:20 AM — Nov 29 9:50 AM, Sandefjord, Weather by CustomWeather, © 2014

Note: Actual official high and low records may vary slightly from our data, if they occured in-between our weather recording intervals... More about our weather records

Advertising

Sandefjord weather history for previous 24 hours

 ConditionsComfort  
Time TempWeatherWind HumidityBarometerVisibility
9:50 AM
Nov 29
34 °FMore clouds than sun.5 mph81%30.42 "HgN/A
9:20 AM34 °FPartly sunny.5 mph81%30.42 "HgN/A
8:50 AM32 °FPartly sunny.5 mph87%30.42 "HgN/A
8:20 AM34 °FOvercast.2 mph75%30.42 "HgN/A
7:50 AM34 °FPassing clouds.3 mph75%30.42 "HgN/A
7:20 AM34 °FPassing clouds.5 mph75%30.42 "HgN/A
6:50 AM34 °FPassing clouds.6 mph75%30.42 "HgN/A
6:20 AM34 °FPassing clouds.6 mph81%30.42 "HgN/A
5:50 AM34 °FPassing clouds.5 mph87%30.42 "HgN/A
5:20 AM34 °FOvercast.3 mph81%30.42 "HgN/A
4:50 AM34 °FOvercast.2 mph81%30.42 "HgN/A
4:20 AM34 °FOvercast.2 mph81%30.42 "HgN/A
3:50 AM34 °FOvercast.3 mph81%30.42 "HgN/A
3:20 AM34 °FOvercast.6 mph81%30.45 "HgN/A
2:50 AM34 °FOvercast.5 mph81%30.45 "HgN/A
2:20 AM34 °FOvercast.6 mph81%30.45 "HgN/A
1:50 AM34 °FOvercast.7 mph81%30.45 "HgN/A
1:20 AM34 °FOvercast.6 mph81%30.45 "HgN/A
12:50 AM34 °FOvercast.6 mph81%30.45 "HgN/A
12:20 AM36 °FOvercast.5 mph75%30.45 "HgN/A
11:50 PM
Nov 28
34 °FOvercast.6 mph81%30.45 "HgN/A
11:20 PM34 °FOvercast.5 mph81%30.45 "HgN/A
10:50 PM36 °FPassing clouds.5 mph75%30.45 "HgN/A
10:20 PM36 °FPassing clouds.6 mph87%30.45 "HgN/A
9:50 PM36 °FPassing clouds.5 mph93%30.45 "HgN/A
9:20 PM36 °FPassing clouds.6 mph87%30.42 "HgN/A
8:50 PM36 °FPassing clouds.6 mph93%30.42 "HgN/A
8:20 PM36 °FPartly cloudy.6 mph93%30.42 "HgN/A
7:50 PM36 °FPassing clouds.7 mph93%30.42 "HgN/A
7:20 PM36 °FOvercast.7 mph93%30.42 "HgN/A
6:50 PM36 °FMostly cloudy.6 mph100%30.42 "HgN/A
6:20 PM36 °FPassing clouds.6 mph100%30.42 "HgN/A
5:50 PM36 °FPassing clouds.7 mph93%30.42 "Hg4 mi
5:20 PM36 °FPartly cloudy.7 mph93%30.42 "Hg5 mi
4:50 PM34 °FMostly cloudy.7 mph100%30.39 "Hg4 mi
4:20 PM34 °FFog.6 mph100%30.39 "Hg3 mi
3:50 PM34 °FFog.7 mph100%30.39 "Hg2 mi
3:20 PM34 °FFog.7 mph100%30.39 "Hg2 mi
2:50 PM34 °FFog.7 mph100%30.39 "Hg4 mi
2:20 PM34 °FFog.7 mph100%30.39 "Hg3 mi
1:20 PM34 °FPartly sunny.6 mph100%30.39 "Hg4 mi
12:50 PM34 °FPartly sunny.5 mph100%30.39 "Hg4 mi
12:20 PM34 °FPartly sunny.6 mph100%30.39 "Hg4 mi
11:50 AM34 °FPartly sunny.5 mph93%30.39 "Hg5 mi
11:20 AM34 °FLow clouds.6 mph93%30.39 "Hg4 mi
Weather by CustomWeather, © 2014

See weather overviewHow to use our weather pages